| time (UTC) | temp F | wind direction | speed knots | gust knots | rain 1hr in | rain 24hr in | rain mn in | humidity % | barometer mb |
| 20260831024545 | 88 | 0 | 0.0 | 0.0 | 0.00 | 0.00 | 0.00 | 32 | 1013.3 |
| 20260831023041 | 88 | 0 | 0.0 | 0.0 | 0.00 | 0.00 | 0.00 | 31 | 1013.2 |
| 20260831021541 | 89 | 0 | 0.0 | 0.9 | 0.00 | 0.00 | 0.00 | 31 | 1012.9 |
| 20260831020052 | 88 | 0 | 0.0 | 0.9 | 0.00 | 0.00 | 0.00 | 30 | 1012.6 |
| 20260831014549 | 88 | 0 | 0.0 | 0.0 | 0.00 | 0.00 | 0.00 | 29 | 1012.4 |
| 20260831013101 | 90 | 0 | 0.0 | 0.0 | 0.00 | 0.00 | 0.00 | 27 | 1012.2 |
| 20260831011549 | 91 | 0 | 0.0 | 0.0 | 0.00 | 0.00 | 0.00 | 25 | 1012.1 |
| 20260831010051 | 94 | 0 | 0.0 | 0.9 | 0.00 | 0.00 | 0.00 | 23 | 1012.0 |
| 20260831004543 | 94 | 0 | 0.0 | 3.5 | 0.00 | 0.00 | 0.00 | 21 | 1011.9 |
| 20260831003045 | 95 | 0 | 0.0 | 2.6 | 0.00 | 0.00 | 0.00 | 21 | 1012.0 |
| 20260831001544 | 96 | 81 | 1.7 | 7.0 | 0.00 | 0.00 | 0.00 | 20 | 1012.0 |
| 20260831000044 | 97 | 125 | 0.9 | 6.1 | 0.00 | 0.00 | 0.00 | 19 | 1012.1 |
| 20260830234543 | 97 | 118 | 0.9 | 4.3 | 0.00 | 0.00 | 0.00 | 18 | 1012.0 |
| 20260830233045 | 98 | 112 | 1.7 | 7.0 | 0.00 | 0.00 | 0.00 | 16 | 1012.1 |
| 20260830231543 | 98 | 124 | 0.9 | 7.8 | 0.00 | 0.00 | 0.00 | 16 | 1012.1 |
| 20260830230040 | 99 | 150 | 1.7 | 8.7 | 0.00 | 0.00 | 0.00 | 16 | 1012.3 |
| 20260830224542 | 99 | 160 | 0.9 | 6.1 | 0.00 | 0.00 | 0.00 | 16 | 1012.3 |
| 20260830223107 | 99 | 158 | 0.9 | 7.8 | 0.00 | 0.00 | 0.00 | 16 | 1012.4 |
| 20260830221546 | 99 | 20 | 0.9 | 7.8 | 0.00 | 0.00 | 0.00 | 16 | 1012.4 |
| 20260830220044 | 101 | 158 | 0.0 | 6.1 | 0.00 | 0.00 | 0.00 | 16 | 1012.4 |
| 20260830214546 | 101 | 55 | 0.9 | 4.3 | 0.00 | 0.00 | 0.00 | 15 | 1012.4 |
| 20260830213045 | 101 | 170 | 0.0 | 7.0 | 0.00 | 0.00 | 0.00 | 16 | 1012.5 |
| 20260830211547 | 101 | 171 | 0.0 | 3.5 | 0.00 | 0.00 | 0.00 | 16 | 1012.8 |
| 20260830210040 | 101 | 84 | 0.0 | 6.1 | 0.00 | 0.00 | 0.00 | 17 | 1012.8 |
| 20260830204549 | 101 | 146 | 1.7 | 8.7 | 0.00 | 0.00 | 0.00 | 17 | 1013.1 |
| 20260830203042 | 103 | 133 | 1.7 | 6.1 | 0.00 | 0.00 | 0.00 | 15 | 1013.3 |
| 20260830201541 | 102 | 131 | 0.9 | 7.0 | 0.00 | 0.00 | 0.00 | 17 | 1013.5 |
| 20260830200045 | 102 | 172 | 1.7 | 6.1 | 0.00 | 0.00 | 0.00 | 17 | 1013.9 |
| 20260830194544 | 103 | 73 | 0.9 | 5.2 | 0.00 | 0.00 | 0.00 | 16 | 1014.0 |
| 20260830193042 | 102 | 141 | 2.6 | 8.7 | 0.00 | 0.00 | 0.00 | 17 | 1014.2 |
| 20260830191546 | 101 | 354 | 1.7 | 7.8 | 0.00 | 0.00 | 0.00 | 18 | 1014.3 |
| 20260830190058 | 101 | 165 | 0.9 | 7.8 | 0.00 | 0.00 | 0.00 | 19 | 1014.5 |
| 20260830184541 | 100 | 161 | 2.6 | 8.7 | 0.00 | 0.00 | 0.00 | 20 | 1014.6 |
| 20260830183058 | 100 | 117 | 0.9 | 5.2 | 0.00 | 0.00 | 0.00 | 20 | 1014.8 |
| 20260830181544 | 100 | 106 | 0.9 | 5.2 | 0.00 | 0.00 | 0.00 | 22 | 1015.1 |
| 20260830180044 | 99 | 90 | 1.7 | 7.0 | 0.00 | 0.00 | 0.00 | 24 | 1015.3 |
| 20260830174556 | 98 | 146 | 0.9 | 7.0 | 0.00 | 0.00 | 0.00 | 25 | 1015.5 |
| 20260830173041 | 97 | 149 | 0.9 | 8.7 | 0.00 | 0.00 | 0.00 | 27 | 1015.7 |
| 20260830171542 | 96 | 95 | 0.9 | 5.2 | 0.00 | 0.00 | 0.00 | 26 | 1015.9 |
| 20260830170042 | 96 | 89 | 0.0 | 5.2 | 0.00 | 0.00 | 0.00 | 30 | 1016.1 |
| 20260830164555 | 95 | 123 | 1.7 | 7.0 | 0.00 | 0.00 | 0.00 | 29 | 1016.3 |
| 20260830163046 | 94 | 128 | 0.0 | 5.2 | 0.00 | 0.00 | 0.00 | 33 | 1016.3 |
| 20260830161547 | 93 | 147 | 0.9 | 2.6 | 0.00 | 0.00 | 0.00 | 34 | 1016.4 |
| 20260830160043 | 92 | 0 | 0.9 | 4.3 | 0.00 | 0.00 | 0.00 | 37 | 1016.4 |
| 20260830154542 | 91 | 0 | 0.0 | 7.0 | 0.00 | 0.00 | 0.00 | 38 | 1016.4 |
| 20260830153047 | 90 | 134 | 0.0 | 2.6 | 0.00 | 0.00 | 0.00 | 42 | 1016.4 |
| 20260830151546 | 89 | 0 | 0.0 | 1.7 | 0.00 | 0.00 | 0.00 | 43 | 1016.4 |
| 20260830150040 | 87 | 122 | 0.0 | 4.3 | 0.00 | 0.00 | 0.00 | 43 | 1016.3 |
| 20260830144540 | 86 | 0 | 0.0 | 2.6 | 0.00 | 0.00 | 0.00 | 45 | 1016.3 |
| 20260830143049 | 85 | 0 | 0.0 | 3.5 | 0.00 | 0.00 | 0.00 | 47 | 1016.3 |
| 20260830141543 | 84 | 115 | 0.0 | 4.3 | 0.00 | 0.00 | 0.00 | 49 | 1016.4 |
| 20260830140046 | 83 | 0 | 0.0 | 0.9 | 0.00 | 0.00 | 0.00 | 52 | 1016.4 |
| 20260830134545 | 82 | 0 | 0.0 | 2.6 | 0.00 | 0.00 | 0.00 | 54 | 1016.4 |
| 20260830133040 | 80 | 129 | 0.0 | 0.9 | 0.00 | 0.00 | 0.00 | 56 | 1016.3 |
| 20260830131547 | 79 | 0 | 0.0 | 0.9 | 0.00 | 0.00 | 0.00 | 59 | 1016.2 |
| 20260830130045 | 77 | 0 | 0.0 | 0.9 | 0.00 | 0.00 | 0.00 | 61 | 1016.0 |
| 20260830124542 | 75 | 0 | 0.0 | 0.0 | 0.00 | 0.00 | 0.00 | 63 | 1015.7 |
| 20260830123041 | 75 | 0 | 0.0 | 0.0 | 0.00 | 0.00 | 0.00 | 62 | 1015.6 |
| 20260830121541 | 75 | 0 | 0.0 | 0.0 | 0.00 | 0.00 | 0.00 | 61 | 1015.5 |
| 20260830120042 | 75 | 0 | 0.0 | 0.0 | 0.00 | 0.00 | 0.00 | 60 | 1015.4 |
| 20260830114541 | 75 | 0 | 0.0 | 0.0 | 0.00 | 0.00 | 0.00 | 60 | 1015.2 |
| 20260830113043 | 76 | 0 | 0.0 | 0.0 | 0.00 | 0.00 | 0.00 | 59 | 1015.0 |
| 20260830111539 | 76 | 0 | 0.0 | 0.0 | 0.00 | 0.00 | 0.00 | 59 | 1014.9 |
| 20260830110043 | 76 | 0 | 0.0 | 0.0 | 0.00 | 0.00 | 0.00 | 57 | 1014.7 |
| 20260830104602 | 77 | 0 | 0.0 | 0.0 | 0.00 | 0.00 | 0.00 | 57 | 1014.5 |
| 20260830103042 | 77 | 0 | 0.0 | 0.0 | 0.00 | 0.00 | 0.00 | 55 | 1014.5 |
| 20260830101540 | 78 | 0 | 0.0 | 0.0 | 0.00 | 0.00 | 0.00 | 54 | 1014.3 |
| 20260830100039 | 79 | 0 | 0.0 | 0.0 | 0.00 | 0.00 | 0.00 | 53 | 1014.2 |
| 20260830094544 | 80 | 0 | 0.0 | 0.9 | 0.00 | 0.00 | 0.00 | 49 | 1014.2 |
| 20260830093043 | 80 | 0 | 0.0 | 1.7 | 0.00 | 0.00 | 0.00 | 49 | 1014.3 |
| 20260830091539 | 80 | 0 | 0.0 | 0.9 | 0.00 | 0.00 | 0.00 | 50 | 1014.3 |
| 20260830090043 | 80 | 0 | 0.0 | 0.9 | 0.00 | 0.00 | 0.00 | 50 | 1014.2 |
| 20260830084542 | 81 | 0 | 0.0 | 0.0 | 0.00 | 0.00 | 0.00 | 46 | 1014.2 |
| 20260830083054 | 82 | 0 | 0.0 | 0.9 | 0.00 | 0.00 | 0.00 | 45 | 1014.2 |
| 20260830081545 | 82 | 0 | 0.0 | 0.9 | 0.00 | 0.00 | 0.00 | 44 | 1014.2 |
| 20260830080043 | 82 | 0 | 0.0 | 0.9 | 0.00 | 0.00 | 0.00 | 44 | 1014.1 |
| 20260830074542 | 82 | 0 | 0.0 | 0.9 | 0.00 | 0.00 | 0.00 | 44 | 1014.1 |
| 20260830073040 | 82 | 0 | 0.0 | 0.0 | 0.00 | 0.00 | 0.00 | 44 | 1014.2 |
| 20260830071543 | 83 | 0 | 0.0 | 0.9 | 0.00 | 0.00 | 0.00 | 42 | 1014.3 |
| 20260830070042 | 83 | 120 | 0.0 | 0.9 | 0.00 | 0.00 | 0.00 | 42 | 1014.3 |
| 20260830064541 | 83 | 0 | 0.0 | 0.9 | 0.00 | 0.00 | 0.00 | 42 | 1014.3 |
| 20260830063103 | 82 | 0 | 0.0 | 0.9 | 0.00 | 0.00 | 0.00 | 41 | 1014.5 |
| 20260830061549 | 82 | 0 | 0.0 | 0.0 | 0.00 | 0.00 | 0.00 | 42 | 1014.5 |
| 20260830060048 | 82 | 0 | 0.0 | 0.0 | 0.00 | 0.00 | 0.00 | 41 | 1014.5 |
| 20260830054543 | 83 | 0 | 0.0 | 0.0 | 0.00 | 0.00 | 0.00 | 40 | 1014.4 |
| 20260830053046 | 83 | 0 | 0.0 | 0.0 | 0.00 | 0.00 | 0.00 | 39 | 1014.3 |
| 20260830051543 | 83 | 0 | 0.0 | 0.9 | 0.00 | 0.00 | 0.00 | 39 | 1014.5 |
| 20260830050042 | 83 | 0 | 0.0 | 0.0 | 0.00 | 0.00 | 0.00 | 40 | 1014.5 |
| 20260830044545 | 83 | 0 | 0.0 | 0.0 | 0.00 | 0.00 | 0.00 | 39 | 1014.5 |
| 20260830043042 | 84 | 0 | 0.0 | 0.0 | 0.00 | 0.00 | 0.00 | 37 | 1014.5 |
| 20260830041540 | 85 | 0 | 0.0 | 0.0 | 0.00 | 0.00 | 0.00 | 36 | 1014.4 |
| 20260830040048 | 86 | 0 | 0.0 | 0.0 | 0.00 | 0.00 | 0.00 | 34 | 1014.4 |
| 20260830034547 | 87 | 0 | 0.0 | 0.0 | 0.00 | 0.00 | 0.00 | 33 | 1014.3 |
| 20260830033042 | 87 | 0 | 0.0 | 0.9 | 0.00 | 0.00 | 0.00 | 33 | 1014.2 |
| 20260830031546 | 88 | 0 | 0.0 | 0.0 | 0.00 | 0.00 | 0.00 | 31 | 1014.2 |
| 20260830030044 | 89 | 0 | 0.0 | 0.9 | 0.00 | 0.00 | 0.00 | 29 | 1014.0 |